Pagina principale
METAR-TAF:

METAR-TAF

Aeroporti :

Meiringen, Svizzera

latitudine: 46-44-25N, longitudine: 8-06-36E, altezza: 577 m

Osservazione

Il bollettino è stato emesso 28 minuti fa, alle 18:50 UTC
Vento 5 kt da est
Temperature 12°C
Umidità 50%
Pressione 1027 hPa
Visibilità 10 km o più
Poco nuvoloso ad un'altezza di 10000 ft

METAR: LSMM 191850Z AUTO 10005KT 9999NDV FEW100 12/02 Q1027 RMK

Ora: 21:18 (19:18 UTC)


TAF: mancante

Osservazioni e previsioni meteorologiche di più di 4000 aeroporti (messaggi METAR e TAF).

Le stazioni disponibili sono rappresentate dai dischi gialli e rossi sulla carta.

Puntare il mouse per vedere il nome della stazione.

Clicca sopra per visualizzare le osservazioni e previsioni meteorologiche.

Per cambiare la mappa : fare clic sui pulsanti verdi con una croce nera per ingrandire, il pulsante verde con un trattino per diminuire, o sulla freccia verde per le mappe adiacenti.


METAR-TAF: